Location: Lasqueti Island Observatory
(49.4855°N, 124.2726°W)
Time: 07:47:15
(UTC-07:00)

Daily predictions for brighter satellites

Satellite Brightness Start Highest point End
(mag) Time Altitude Azimuth Time Altitude Azimuth Time Altitude Azimuth
Cosmos 1953 Rocket 3.8 19:29:13 10° NNW 19:33:34 76° W 19:37:52 10° S
Cosmos 1709 Rocket 4.1 19:27:29 10° S 19:33:52 88° E 19:40:18 10° N
Cosmos 1606 Rocket 3.5 19:29:37 10° S 19:33:56 87° ESE 19:38:18 10° N
Cosmos 1943 Rocket 4.1 19:31:58 10° NW 19:36:57 34° WSW 19:41:56 10° S
Cosmos 1340 Rocket 3.9 19:34:34 10° NNW 19:38:32 51° W 19:42:30 10° S
GP-B 4.5 19:36:04 10° NNE 19:39:16 19° ENE 19:42:26 10° SE
Thor Agena Rocket 3.9 19:35:27 10° NNE 19:40:30 45° E 19:45:27 10° S
CZ-2D R/B 4.4 19:41:12 10° ESE 19:44:21 25° ENE 19:47:32 10° N
Cosmos 2058 Rocket 3.0 19:40:13 10° S 19:44:33 69° E 19:48:56 10° NNE
OPS 8737 4.5 19:41:11 10° SW 19:44:43 84° NW 19:48:05 10° NE
Resurs 01 Rocket 2.7 19:41:09 10° ESE 19:44:45 25° ENE 19:48:21 10° N
Cosmos 1814 Rocket 4.2 19:46:49 10° SSW 19:51:58 79° WNW 19:57:08 10° NNE
Nadezhda 3 Rocket 4.5 19:46:18 10° N 19:52:14 40° ENE 19:58:04 10° SE
Cosmos 2322 Rocket 4.4 19:51:33 10° NNE 19:52:22 10° NNE 19:53:11 10° NNE
Cosmos 372 Rocket 4.0 19:47:59 10° NNW 19:53:15 65° ENE 19:58:28 10° SE
Cosmos 1356 4.1 19:51:09 10° N 19:54:24 35° ENE 19:57:38 10° SE
Cosmos 1125 Rocket 3.5 19:53:26 10° NNW 19:58:46 80° ENE 20:04:05 10° SSE
SL-08 ROCKET BODY 4.4 19:53:06 10° S 19:59:00 85° E 20:05:03 10° N
USA 186 3.1 19:59:07 13° ENE 19:59:07 13° ENE 20:00:17 10° NE
Meteor 2-13 Rocket 4.4 19:53:09 10° S 19:59:14 87° E 20:05:20 10° N
Cosmos 1697 Rocket 3.9 19:56:04 10° NNW 20:00:48 26° NE 20:04:41 13° E
Cosmos 1980 Rocket 3.8 19:58:52 10° N 20:02:54 19° NE 20:06:24 12° E
Meteor 1-24 Rocket 3.9 19:57:45 10° NNW 20:03:47 90° E 20:09:34 10° S
Cosmos 2184 Rocket 4.0 20:01:14 10° S 20:07:30 70° E 20:13:52 10° NNE
Geosat 4.3 20:03:49 10° SSE 20:08:49 69° WSW 20:13:52 10° NNW
YAOGAN 6 4.4 20:08:16 14° ENE 20:08:58 15° ENE 20:11:03 10° NNE
Envisat 3.6 20:04:52 10° SE 20:09:31 37° ENE 20:14:10 10° N
Cosmos 1544 3.0 20:09:19 10° S 20:12:51 57° E 20:16:26 10° NNE
H-2A R/B 2.7 20:09:53 10° SSE 20:13:37 84° WSW 20:17:26 10° NNW
SJ-6B 2.8 20:12:13 10° SSE 20:16:12 88° WSW 20:20:06 10° NNW
FENGYUN 3A 4.5 20:11:26 10° S 20:16:40 54° W 20:21:58 10° NNW
COSMO-SKYMED 1 4.2 20:15:13 10° N 20:19:15 38° WNW 20:23:16 10° SW
Cosmos 2084 4.0 20:16:11 10° WSW 20:20:06 53° NW 20:23:53 10° NE
Cosmos 1953 3.1 20:18:18 10° SSE 20:21:53 31° E 20:25:30 10° NNE
ATLAS 2AS CENTAUR R/B 3.2 20:14:07 10° NW 20:22:10 60° NE 20:28:03 18° ESE
Cosmos 841 Rocket 3.9 20:18:12 10° SSW 20:23:19 66° WNW 20:28:28 10° NNE
SL-27 R/B 3.0 20:21:25 10° S 20:24:47 38° ESE 20:28:13 10° NE
Cosmos 2327 Rocket 4.4 20:18:45 10° S 20:24:51 84° E 20:30:59 10° N
Cosmos 1076 Rocket 4.1 20:25:58 10° N 20:30:02 37° ENE 20:32:01 24° ESE
Cosmos 540 Rocket 3.3 20:26:44 10° SSW 20:31:50 81° ESE 20:36:59 10° NNE
SL-16 R/B 4.1 20:29:07 10° N 20:32:19 15° NNE 20:34:58 11° ENE
HJ-1C 4.0 20:29:32 10° S 20:32:50 57° W 20:36:11 10° NNW
Cosmos 1674 2.7 20:29:29 10° N 20:33:11 57° ENE 20:35:35 20° SSE
SJ 16-02 1.5 20:29:56 10° NNW 20:34:20 75° WSW 20:38:42 10° SSE
Cosmos 292 Rocket 4.1 20:29:48 10° S 20:34:21 42° ESE 20:38:57 10° NE
H-2A R/B 3.9 20:37:48 13° ENE 20:38:23 13° NE 20:40:40 10° NNE
Cosmos 1766 3.9 20:37:42 10° SSW 20:41:33 57° WNW 20:45:25 10° N
ISS -2.8 20:43:25 10° SSW 20:45:56 31° SSE 20:45:56 31° SSE
COSMOS 2406 3.5 20:43:06 10° SW 20:48:49 73° WNW 20:54:36 10° NNE
Resurs 1-3 3.6 20:48:03 14° SSE 20:51:52 87° WSW 20:56:18 10° NNW
Cosmos 2369 3.6 20:48:58 10° NNW 20:54:40 84° ENE 20:58:05 25° SSE
USA 267 4.0 20:50:55 12° ENE 20:56:43 49° N 21:02:57 10° W
Cosmos 1833 Rocket 4.3 21:01:49 17° ENE 21:01:49 17° ENE 21:03:20 10° NE
Cosmos 1538 Rocket 4.4 20:59:26 36° ESE 20:59:54 37° ESE 21:04:42 10° NE
Cosmos 1733 3.2 21:00:14 54° E 21:00:15 54° E 21:04:01 10° NNE
Cosmos 1408 Rocket 3.7 21:02:22 10° N 21:06:36 49° ENE 21:06:47 48° E
Cosmos 1758 3.5 21:03:35 10° SSW 21:07:35 73° W 21:11:36 10° N
Meteor 1-21 Rocket 4.5 21:05:43 10° NNW 21:11:28 70° W 21:16:39 12° S
Cosmos 1805 4.4 21:07:54 10° SSW 21:11:39 44° WNW 21:15:25 10° N
Cosmos 1812 Rocket 4.5 21:07:57 10° SSW 21:12:18 50° WNW 21:16:41 10° N
Cosmos 2154 Rocket 4.2 21:06:55 10° SSW 21:13:08 73° W 21:19:28 10° N
Spot 2 Rocket 3.9 21:11:25 14° S 21:15:45 61° WSW 21:20:46 10° NNW
Cosmos-2242 4.4 21:18:11 25° NE 21:18:11 25° NE 21:20:15 10° NNE
BREEZE-M DEB (TANK) 4.1 20:53:40 10° W 21:16:12 90° NE 21:18:49 38° E
GP-B 3.9 21:12:34 10° N 21:16:54 52° W 21:21:12 10° SSW
SJ-11-01 4.2 21:16:20 41° SSE 21:18:01 90° ENE 21:22:47 10° NNW
KORONAS-FOTON 4.2 21:14:26 10° NNW 21:18:12 61° W 21:19:16 41° SSW
Resurs 01 Rocket 2.7 21:17:05 11° S 21:21:02 42° W 21:25:16 10° NNW
Helios 1A 3.2 21:23:34 56° NE 21:23:34 56° NE 21:27:18 10° N
MOS 1-B Rocket 4.4 21:18:32 10° S 21:24:23 57° WSW 21:29:55 10° NNW
Cosmos 2082 Rocket 3.3 21:27:22 28° NE 21:27:22 28° NE 21:30:15 10° NE
Cosmos 1939 Rocket 3.0 21:24:23 56° SSW 21:25:02 68° WSW 21:29:01 10° NNW
Cosmos 2278 4.1 21:22:46 10° NW 21:28:20 60° WSW 21:31:01 30° S
Cosmos 2341 Rocket 4.1 21:22:22 10° SSW 21:28:35 77° W 21:34:52 10° N
Meteor 2-21 4.3 21:22:39 10° S 21:28:47 79° E 21:34:56 10° NNE
USA 186 4.3 21:30:42 15° WNW 21:30:42 15° WNW 21:31:31 10° NW
Cosmos 2084 Rocket 3.4 21:26:48 10° NW 21:30:11 67° NW 21:30:11 67° NW
ERS-1 Rocket 3.1 21:32:22 53° ENE 21:32:22 53° ENE 21:37:09 10° N
Cosmos 1470 2.9 21:32:20 69° WSW 21:32:32 72° W 21:36:33 10° N
Terra 4.0 21:35:06 14° NE 21:35:06 14° NE 21:36:33 10° NNE
Cosmos 1766 Rocket 3.5 21:32:15 10° NNW 21:36:38 77° W 21:36:49 75° SW
Cosmos 1959 Rocket 4.4 21:34:24 40° SSE 21:36:43 70° E 21:43:00 10° NNE
Cosmos 1656 4.0 21:31:27 10° NW 21:37:03 61° WSW 21:39:01 39° S
Meteor 2-15 Rocket 4.4 21:31:56 10° N 21:38:03 85° W 21:40:25 40° S
Cosmos 2322 Rocket 3.3 21:33:32 10° NNW 21:38:27 30° NE 21:38:34 30° NE
YAOGAN 6 3.6 21:42:44 47° WNW 21:42:44 47° WNW 21:45:42 10° NNW
Cosmos 2366 rocket 3.9 21:43:42 51° SSE 21:45:19 73° E 21:51:36 10° NNE
Cosmos 1697 Rocket 2.8 21:39:40 10° NNW 21:45:21 74° WSW 21:46:26 57° S
Cosmos 1818 3.4 21:39:58 10° NW 21:45:28 84° NE 21:45:47 78° ESE
Cosmos 2360 Rocket 3.9 21:41:32 10° N 21:45:29 19° NE 21:45:52 19° NE
Cosmos 1980 Rocket 2.0 21:42:12 10° NNW 21:47:53 76° ENE 21:48:10 74° E
Envisat 4.4 21:44:40 14° SSW 21:48:33 35° W 21:53:12 10° NNW
Cosmos 2218 Rocket 3.9 21:49:34 40° S 21:51:59 88° E 21:58:13 10° N
Cosmos 2285 Rocket 4.1 21:49:31 10° SSW 21:55:58 78° WNW 22:02:28 10° NNE
Cosmos 1953 4.5 21:54:53 10° SW 21:58:20 26° WNW 22:01:50 10° NNW
Cosmos 1626 4.3 21:56:28 10° N 21:57:49 21° N 21:57:49 21° N
SL-08 R/B 4.4 22:00:39 60° S 22:01:56 89° E 22:08:13 10° N
Iridium 4 Rocket 4.3 22:05:42 40° N 22:05:42 40° N 22:08:58 10° N
Meteor 2-16 Rocket 4.3 22:03:38 62° SSW 22:04:46 85° W 22:10:55 10° N
MetOp-A 4.1 22:06:09 80° NNW 22:06:09 80° NNW 22:11:15 10° NNW
ARGOS 3.2 22:09:47 72° N 22:09:47 72° N 22:14:40 10° NNW
BREEZE-M DEB (TANK) 4.1 22:04:48 10° WSW 22:09:15 33° SW 22:09:15 33° SW
SL-8 Rocket 4.4 22:07:39 18° SSW 22:12:16 58° WNW 22:18:22 10° N
Cosmos 1727 Rocket 4.1 22:06:48 10° NNW 22:13:05 71° W 22:14:08 59° SSW
ATLAS 2AS CENTAUR R/B 3.6 22:05:34 10° NW 22:13:08 48° WSW 22:15:29 37° SSW
H-2A R/B 2.8 22:18:26 44° N 22:18:26 44° N 22:21:59 10° N
SPOT 5 4.2 22:19:24 31° N 22:19:24 31° N 22:21:51 10° N
SL-16 R/B 2.9 22:12:18 10° NNW 22:16:50 45° NNE 22:16:50 45° NNE
NOSS 3-4 (A) 3.7 22:18:49 10° NW 22:25:44 77° NE 22:25:51 77° NE
NOSS 3-4 (C) 3.7 22:18:55 10° NW 22:25:50 77° NE 22:25:57 77° NE
USA 267 3.7 22:38:16 48° NE 22:39:08 51° NNE 22:45:24 10° WNW
Cosmos 1833 Rocket 3.5 22:43:23 45° NNW 22:43:23 45° NNW 22:47:45 10° NNE
Cosmos 2219 Rocket 4.3 22:45:50 10° N 22:48:54 17° NNE 22:48:54 17° NNE
Cosmos 2082 Rocket 3.5 23:09:04 37° NW 23:09:04 37° NW 23:14:22 10° NNE
Terra 4.0 23:14:00 22° NNW 23:14:00 22° NNW 23:15:39 10° NNW
Cosmos 2322 Rocket 3.7 23:17:21 10° NW 23:20:22 32° NW 23:20:22 32° NW
Cosmos 2360 Rocket 3.8 23:24:51 10° NNW 23:27:37 30° NNW 23:27:37 30° NNW
Cosmos 1980 Rocket 4.3 23:27:16 10° NW 23:29:57 19° W 23:29:57 19° W
